K5SVV Weather Reports


Display with metric or nautical units.
time (UTC)temp
F
wind
direction
speed
MPH
gust
MPH
rain 1hr
in
rain 24hr
in
rain mn
in
humidity
%
barometer
mb
20260509025907 71 185 0.0 0.0 0.00 0.00 0.00 90 1009.1
20260509025402 71 180 0.0 0.0 0.00 0.00 0.00 89 1009.0
20260509024857 71 181 0.0 0.0 0.00 0.00 0.00 89 1009.1
20260509024354 71 181 0.0 0.0 0.00 0.00 0.00 89 1008.8
20260509023851 72 181 0.0 0.0 0.00 0.00 0.00 89 1009.0
20260509023348 72 181 0.0 0.0 0.00 0.00 0.00 89 1009.0
20260509022844 72 181 0.0 0.0 0.00 0.00 0.00 89 1008.8
20260509022342 72 181 0.0 0.0 0.00 0.00 0.00 88 1008.7
20260509021839 72 188 0.0 0.0 0.00 0.00 0.00 88 1008.7
20260509021336 72 184 0.0 0.0 0.00 0.00 0.00 88 1008.5
20260509020834 72 184 0.0 0.0 0.00 0.00 0.00 88 1008.4
20260509020332 72 184 0.0 0.0 0.00 0.00 0.00 88 1008.7
20260509015829 72 165 0.0 0.0 0.00 0.00 0.00 88 1008.3
20260509015327 72 171 0.0 0.0 0.00 0.00 0.00 88 1008.4
20260509014823 72 181 0.0 0.0 0.00 0.00 0.00 88 1008.1
20260509014320 72 181 0.0 0.0 0.00 0.00 0.00 87 1008.3
20260509013817 72 191 0.0 0.0 0.00 0.00 0.00 87 1008.3
20260509013313 72 191 0.0 0.0 0.00 0.00 0.00 87 1008.3
20260509012809 72 191 0.0 0.0 0.00 0.00 0.00 87 1008.4
20260509012307 72 192 0.0 0.0 0.00 0.00 0.00 87 1008.1
20260509011803 72 192 0.0 0.0 0.00 0.00 0.00 86 1008.2
20260509011301 73 193 0.0 0.0 0.00 0.00 0.00 86 1008.4
20260509010758 73 191 0.0 0.0 0.00 0.00 0.00 86 1008.4
20260509010255 73 191 0.0 0.0 0.00 0.00 0.00 86 1008.0
20260509005753 73 181 0.0 0.0 0.00 0.00 0.00 86 1007.8
20260509005251 73 184 0.0 0.0 0.00 0.00 0.00 86 1007.6
20260509004749 73 197 0.0 0.0 0.00 0.00 0.00 86 1007.9
20260509004247 73 206 0.0 0.0 0.00 0.00 0.00 85 1007.9
20260509003745 73 185 0.0 0.0 0.00 0.00 0.00 85 1007.9
20260509003242 73 184 0.0 0.0 0.00 0.00 0.00 85 1008.0
20260509002739 73 184 0.0 0.0 0.00 0.00 0.00 84 1008.0
20260509002237 74 192 0.0 0.0 0.00 0.00 0.00 84 1007.9
20260509001735 74 190 0.0 0.0 0.00 0.00 0.00 83 1007.5
20260509001230 74 162 0.0 0.0 0.00 0.00 0.00 83 1007.8
20260509000728 74 188 0.0 0.0 0.00 0.00 0.00 83 1007.6
20260509000226 74 195 0.0 0.0 0.00 0.00 0.00 83 1007.8
20260508235722 74 183 0.0 0.0 0.00 0.00 0.00 83 1007.9
20260508235218 74 163 1.0 3.0 0.00 0.00 0.00 83 1007.7
20260508234716 74 197 0.0 0.0 0.00 0.00 0.00 83 1007.8
20260508234212 75 156 0.0 1.0 0.00 0.00 0.00 83 1008.0
20260508233706 74 191 0.0 0.0 0.00 0.00 0.00 82 1007.8
20260508233204 74 185 0.0 0.0 0.00 0.00 0.00 82 1007.9
20260508232701 75 185 0.0 0.0 0.00 0.00 0.00 82 1007.6
20260508232157 75 179 0.0 0.0 0.00 0.00 0.00 83 1007.8
20260508231655 74 177 0.0 0.0 0.00 0.00 0.00 82 1007.8
20260508231152 74 201 2.0 3.0 0.00 0.00 0.00 82 1008.0
20260508230649 74 189 1.0 2.0 0.00 0.00 0.00 82 1008.0
20260508230145 75 187 5.0 6.0 0.00 0.00 0.00 81 1007.7
20260508225643 75 168 1.0 1.0 0.00 0.00 0.00 82 1008.0
20260508225139 74 143 0.0 1.0 0.00 0.00 0.00 82 1007.9
20260508224637 74 169 0.0 1.0 0.00 0.00 0.00 83 1007.8
20260508224134 74 158 4.0 4.0 0.00 0.00 0.00 82 1007.9
20260508223632 74 196 6.0 7.0 0.00 0.00 0.00 81 1008.0
20260508223129 74 193 0.0 0.0 0.00 0.00 0.00 82 1008.1
20260508222626 74 187 0.0 0.0 0.00 0.00 0.00 81 1008.0
20260508222123 75 175 2.0 2.0 0.00 0.00 0.00 80 1008.2
20260508221619 75 110 2.0 2.0 0.00 0.00 0.00 80 1007.9
20260508221115 74 206 0.0 0.0 0.00 0.00 0.00 81 1008.2
20260508220612 74 189 0.0 0.0 0.00 0.00 0.00 81 1008.2
20260508220109 74 165 2.0 4.0 0.00 0.00 0.00 80 1008.5
20260508215605 75 180 0.0 0.0 0.00 0.00 0.00 79 1008.5
20260508215102 74 182 0.0 0.0 0.00 0.00 0.00 79 1008.7
20260508214559 74 155 0.0 1.0 0.00 0.00 0.00 80 1008.8
20260508214056 73 184 0.0 0.0 0.00 0.00 0.00 81 1008.3
20260508213553 73 178 0.0 0.0 0.00 0.00 0.00 81 1008.1
20260508213049 72 195 2.0 9.0 0.00 0.00 0.00 82 1008.0
20260508212545 72 146 4.0 8.0 0.00 0.00 0.00 82 1008.1
20260508212042 72 195 2.0 6.0 0.00 0.00 0.00 82 1008.1
20260508211537 71 126 6.0 10.0 0.00 0.00 0.00 81 1008.5
20260508211034 71 186 2.0 4.0 0.00 0.00 0.00 83 1008.7
20260508210530 70 171 3.0 4.0 0.00 0.00 0.00 83 1008.5
20260508210028 70 172 1.0 3.0 0.00 0.00 0.00 83 1008.7
20260508205525 69 171 5.0 7.0 0.00 0.00 0.00 83 1008.8
20260508205021 69 192 3.0 4.0 0.00 0.00 0.00 84 1009.3
20260508204518 68 182 0.0 0.0 0.00 0.00 0.00 84 1009.6
20260508204014 68 181 0.0 0.0 0.00 0.00 0.00 85 1010.1
20260508203510 68 201 2.0 6.0 0.00 0.00 0.00 84 1010.1
20260508203006 68 179 2.0 3.0 0.00 0.00 0.00 84 1010.4
20260508202503 69 194 6.0 8.0 0.00 0.00 0.00 82 1010.4
20260508202000 69 197 2.0 3.0 0.00 0.00 0.00 82 1010.4
20260508201456 69 206 1.0 2.0 0.00 0.00 0.00 82 1010.3
20260508200953 69 204 0.0 0.0 0.00 0.00 0.00 81 1010.9
20260508200451 69 205 2.0 4.0 0.00 0.00 0.00 81 1010.9
20260508195945 69 195 0.0 1.0 0.00 0.00 0.00 80 1010.8
20260508195443 70 136 6.0 8.0 0.00 0.00 0.00 79 1010.8
20260508194939 71 193 2.0 3.0 0.00 0.00 0.00 77 1010.6
20260508194436 71 143 1.0 2.0 0.00 0.00 0.00 78 1010.2
20260508193933 70 199 0.0 0.0 0.00 0.00 0.00 79 1010.4
20260508193430 70 192 4.0 4.0 0.00 0.00 0.00 78 1010.5
20260508192926 69 194 0.0 0.0 0.00 0.00 0.00 79 1010.6
20260508192423 69 194 0.0 0.0 0.00 0.00 0.00 78 1010.6
20260508191920 70 201 0.0 0.0 0.00 0.00 0.00 78 1010.7
20260508191418 69 147 0.0 0.0 0.00 0.00 0.00 78 1010.6
20260508190914 69 158 0.0 0.0 0.00 0.00 0.00 78 1010.8
20260508190411 69 189 0.0 0.0 0.00 0.00 0.00 78 1011.0
20260508185907 69 186 6.0 7.0 0.00 0.00 0.00 77 1011.1
20260508185405 69 199 0.0 0.0 0.00 0.00 0.00 78 1010.7
20260508184902 69 198 4.0 7.0 0.00 0.00 0.00 77 1010.9
20260508184359 69 181 2.0 3.0 0.00 0.00 0.00 76 1011.2
20260508183856 70 195 0.0 0.0 0.00 0.00 0.00 77 1011.5
20260508183352 69 159 0.0 0.0 0.00 0.00 0.00 77 1011.3
20260508182848 69 169 3.0 4.0 0.00 0.00 0.00 77 1011.3
20260508182345 69 196 0.0 0.0 0.00 0.00 0.00 77 1011.9
20260508181840 69 189 0.0 0.0 0.00 0.00 0.00 76 1011.7
20260508181337 69 178 0.0 0.0 0.00 0.00 0.00 76 1011.8
20260508180834 70 188 1.0 3.0 0.00 0.00 0.00 75 1011.6
20260508180331 70 185 0.0 0.0 0.00 0.00 0.00 74 1011.8
20260508175827 70 163 0.0 0.0 0.00 0.00 0.00 76 1011.7
20260508175324 70 187 0.0 0.0 0.00 0.00 0.00 75 1011.6
20260508174823 70 141 3.0 6.0 0.00 0.00 0.00 74 1011.6
20260508174319 70 137 1.0 3.0 0.00 0.00 0.00 74 1011.9
20260508173816 70 170 0.0 0.0 0.00 0.00 0.00 74 1011.7
20260508173313 70 78 0.0 0.0 0.00 0.00 0.00 74 1011.9
20260508172809 69 173 0.0 0.0 0.00 0.00 0.00 75 1011.9
20260508172307 69 168 0.0 0.0 0.00 0.00 0.00 75 1012.2
20260508171802 69 102 4.0 8.0 0.00 0.00 0.00 74 1012.1
20260508171258 69 188 5.0 7.0 0.00 0.00 0.00 74 1012.2
20260508170755 70 151 0.0 0.0 0.00 0.00 0.00 75 1012.1
20260508170254 69 164 1.0 2.0 0.00 0.00 0.00 76 1012.1
20260508165750 69 148 4.0 6.0 0.00 0.00 0.00 75 1012.3
20260508165248 69 138 6.0 8.0 0.00 0.00 0.00 75 1012.4
20260508164743 70 204 0.0 0.0 0.00 0.00 0.00 74 1012.6
20260508164240 71 156 0.0 1.0 0.00 0.00 0.00 73 1012.3
20260508163738 71 167 1.0 2.0 0.00 0.00 0.00 73 1012.5
20260508163236 70 182 0.0 0.0 0.00 0.00 0.00 75 1012.7
20260508162731 70 184 0.0 0.0 0.00 0.00 0.00 74 1012.7
20260508162228 69 110 0.0 0.0 0.00 0.00 0.00 74 1012.6
20260508161725 68 100 0.0 1.0 0.00 0.00 0.00 76 1012.8
20260508161222 68 164 1.0 2.0 0.00 0.00 0.00 77 1012.9
20260508160721 67 188 0.0 0.0 0.00 0.00 0.00 77 1013.3
20260508160219 68 188 0.0 0.0 0.00 0.00 0.00 77 1013.6
20260508155715 68 168 0.0 0.0 0.00 0.00 0.00 77 1013.4
20260508155212 67 180 0.0 0.0 0.00 0.00 0.00 78 1013.4
20260508154709 67 190 0.0 0.0 0.00 0.00 0.00 77 1013.4
20260508154206 66 156 0.0 0.0 0.00 0.00 0.00 78 1013.6
20260508153702 66 176 0.0 0.0 0.00 0.00 0.00 79 1013.6
20260508153200 65 176 0.0 0.0 0.00 0.00 0.00 79 1013.7
20260508152656 65 200 0.0 0.0 0.00 0.00 0.00 79 1013.7
20260508152152 65 217 0.0 0.0 0.00 0.00 0.00 79 1013.6
20260508151648 65 221 1.0 2.0 0.00 0.00 0.00 79 1013.8
20260508151145 65 135 0.0 0.0 0.00 0.00 0.00 80 1013.7
20260508150642 65 135 0.0 0.0 0.00 0.00 0.00 80 1013.8
20260508150139 65 135 1.0 1.0 0.00 0.00 0.00 80 1013.4
20260508145635 65 135 2.0 3.0 0.00 0.00 0.00 79 1013.6
20260508145131 65 135 0.0 0.0 0.00 0.00 0.00 80 1013.7
20260508144629 65 135 0.0 0.0 0.00 0.00 0.00 80 1013.6
20260508144126 65 135 0.0 0.0 0.00 0.00 0.00 80 1013.7
20260508143624 65 135 2.0 3.0 0.00 0.00 0.00 80 1013.7
20260508143120 65 135 0.0 0.0 0.00 0.00 0.00 80 1013.7
20260508142617 65 135 0.0 0.0 0.00 0.00 0.00 80 1013.6
20260508142114 65 135 0.0 0.0 0.00 0.00 0.00 80 1013.5
20260508141610 65 135 0.0 0.0 0.00 0.00 0.00 80 1013.5
20260508141108 65 135 0.0 0.0 0.00 0.00 0.00 81 1013.5
20260508140605 64 136 0.0 0.0 0.00 0.00 0.00 81 1013.6
20260508140101 64 135 0.0 0.0 0.00 0.00 0.00 82 1013.4
20260508135551 64 136 0.0 0.0 0.00 0.00 0.00 81 1013.7
20260508135048 64 135 0.0 0.0 0.00 0.00 0.00 81 1013.5
20260508134544 64 135 0.0 0.0 0.00 0.00 0.00 80 1013.8
20260508134042 64 135 0.0 0.0 0.00 0.00 0.00 80 1014.0
20260508133538 64 135 0.0 0.0 0.00 0.00 0.00 81 1013.6
20260508133036 64 135 0.0 0.0 0.00 0.00 0.00 80 1013.9
20260508132533 64 135 0.0 0.0 0.00 0.00 0.00 81 1013.7
20260508132030 64 135 0.0 0.0 0.00 0.00 0.00 81 1014.1
20260508131525 64 135 0.0 0.0 0.00 0.00 0.00 82 1013.9
20260508131022 63 135 0.0 0.0 0.00 0.00 0.00 83 1014.2
20260508130520 63 195 0.0 0.0 0.00 0.00 0.00 85 1014.0
20260508130015 61 230 0.0 0.0 0.00 0.00 0.00 87 1013.9
20260508125510 60 317 0.0 0.0 0.00 0.00 0.00 88 1013.8
20260508125003 59 237 0.0 0.0 0.00 0.00 0.00 90 1013.6
20260508124501 59 260 0.0 0.0 0.00 0.00 0.00 91 1013.8
20260508123958 59 245 0.0 0.0 0.00 0.00 0.00 91 1014.0
20260508123457 59 244 0.0 0.0 0.00 0.00 0.00 92 1014.2
20260508122952 58 244 0.0 0.0 0.00 0.00 0.00 92 1014.1
20260508122450 58 243 0.0 0.0 0.00 0.00 0.00 92 1013.8
20260508121947 58 244 0.0 0.0 0.00 0.00 0.00 92 1013.4
20260508121445 57 244 0.0 0.0 0.00 0.00 0.00 92 1013.7
20260508120943 57 247 0.0 0.0 0.00 0.00 0.00 92 1013.4
20260508120440 57 206 0.0 0.0 0.00 0.00 0.00 92 1013.4
20260508115938 57 205 0.0 0.0 0.00 0.00 0.00 92 1013.5
20260508115435 57 204 0.0 1.0 0.00 0.00 0.00 92 1013.5
20260508114931 57 197 0.0 0.0 0.00 0.00 0.00 92 1013.4
20260508114428 57 197 0.0 0.0 0.00 0.00 0.00 91 1013.7
20260508113925 57 197 0.0 0.0 0.00 0.00 0.00 91 1013.8
20260508113423 57 188 0.0 0.0 0.00 0.00 0.00 91 1013.7
20260508112920 58 188 0.0 0.0 0.00 0.00 0.00 91 1013.5
20260508112417 58 180 0.0 0.0 0.00 0.00 0.00 91 1013.4
20260508111913 57 176 0.0 0.0 0.00 0.00 0.00 91 1013.5
20260508111410 57 186 0.0 0.0 0.00 0.00 0.00 92 1013.6
20260508110907 57 188 0.0 0.0 0.00 0.00 0.00 92 1013.7
20260508110405 57 181 0.0 0.0 0.00 0.00 0.00 93 1014.0
20260508105904 57 193 0.0 0.0 0.00 0.00 0.00 94 1013.7
20260508105400 57 203 0.0 0.0 0.00 0.00 0.00 94 1013.8
20260508104858 57 193 0.0 0.0 0.00 0.00 0.00 94 1013.6
20260508104355 56 197 0.0 0.0 0.00 0.00 0.00 95 1013.8
20260508103852 56 188 0.0 0.0 0.00 0.00 0.00 95 1013.5
20260508103349 56 195 0.0 0.0 0.00 0.00 0.00 95 1013.6
20260508102846 57 188 0.0 0.0 0.00 0.00 0.00 95 1013.6
20260508102344 57 195 0.0 0.0 0.00 0.00 0.00 95 1013.6
20260508101841 57 196 0.0 0.0 0.00 0.00 0.00 94 1013.8
20260508101338 57 197 0.0 0.0 0.00 0.00 0.00 94 1013.6
20260508100836 57 197 0.0 0.0 0.00 0.00 0.00 94 1013.7
20260508100335 57 197 0.0 0.0 0.00 0.00 0.00 94 1013.4
20260508095830 57 197 0.0 0.0 0.00 0.00 0.00 94 1013.1
20260508095328 57 197 0.0 0.0 0.00 0.00 0.00 94 1013.1
20260508094824 57 197 0.0 0.0 0.00 0.00 0.00 94 1013.3
20260508094322 57 197 0.0 0.0 0.00 0.00 0.00 94 1013.3
20260508093818 57 198 0.0 0.0 0.00 0.00 0.00 94 1013.6
20260508093316 58 198 0.0 0.0 0.00 0.00 0.00 94 1013.6
20260508092813 58 197 0.0 0.0 0.00 0.00 0.00 94 1013.5
20260508092313 58 205 0.0 0.0 0.00 0.00 0.00 94 1013.8
20260508091809 58 209 0.0 0.0 0.00 0.00 0.00 94 1013.7
20260508091305 58 254 0.0 0.0 0.00 0.00 0.00 94 1013.6
20260508090803 58 254 0.0 0.0 0.00 0.00 0.00 94 1013.3
20260508090301 58 254 0.0 0.0 0.00 0.00 0.00 94 1013.5
20260508085757 58 254 0.0 0.0 0.00 0.00 0.00 94 1013.6
20260508085254 58 254 0.0 0.0 0.00 0.00 0.00 94 1013.3
20260508084749 58 255 0.0 0.0 0.00 0.00 0.00 94 1013.5
20260508084247 58 255 0.0 0.0 0.00 0.00 0.00 94 1013.7
20260508083745 58 255 0.0 0.0 0.00 0.00 0.00 94 1013.6
20260508083243 58 255 0.0 0.0 0.00 0.00 0.00 94 1013.5
20260508082742 59 255 0.0 0.0 0.00 0.00 0.00 94 1013.9
20260508082241 59 255 0.0 0.0 0.00 0.00 0.00 94 1013.9
20260508081737 59 255 0.0 0.0 0.00 0.00 0.00 94 1014.0
20260508081234 58 255 0.0 0.0 0.00 0.00 0.00 94 1014.2
20260508080731 58 255 0.0 0.0 0.00 0.00 0.00 94 1014.4
20260508080229 58 255 0.0 0.0 0.00 0.00 0.00 94 1014.6
20260508075725 58 255 0.0 0.0 0.00 0.00 0.00 94 1014.6
20260508075222 58 255 0.0 0.0 0.00 0.00 0.00 94 1014.9
20260508074720 58 247 0.0 0.0 0.00 0.00 0.00 94 1014.8
20260508074218 58 241 0.0 0.0 0.00 0.00 0.00 94 1014.8
20260508073714 58 241 0.0 0.0 0.00 0.00 0.00 94 1014.5
20260508073213 57 241 0.0 1.0 0.00 0.00 0.00 94 1014.5
20260508072708 57 198 0.0 0.0 0.00 0.00 0.00 94 1014.2
20260508072205 57 198 0.0 0.0 0.00 0.00 0.00 94 1014.0
20260508071702 57 198 0.0 0.0 0.00 0.00 0.00 94 1014.1
20260508071201 57 198 0.0 0.0 0.00 0.00 0.00 93 1013.9
20260508070658 57 198 0.0 0.0 0.00 0.00 0.00 93 1013.9
20260508070156 57 198 0.0 0.0 0.00 0.00 0.00 93 1014.1
20260508065653 57 198 0.0 0.0 0.00 0.00 0.00 93 1014.4
20260508065151 57 198 0.0 0.0 0.00 0.00 0.00 93 1014.2
20260508064648 57 198 0.0 0.0 0.00 0.00 0.00 93 1014.5
20260508064146 57 198 0.0 0.0 0.00 0.00 0.00 92 1014.2
20260508063643 57 198 0.0 0.0 0.00 0.00 0.00 92 1014.5
20260508063141 57 198 0.0 0.0 0.00 0.00 0.00 92 1014.7
20260508062639 57 198 0.0 0.0 0.00 0.00 0.00 92 1014.7
20260508062135 58 198 0.0 0.0 0.00 0.00 0.00 91 1014.8
20260508061632 58 198 0.0 0.0 0.00 0.00 0.00 91 1014.9
20260508061130 58 198 0.0 0.0 0.00 0.00 0.00 91 1015.0
20260508060626 58 198 0.0 0.0 0.00 0.00 0.00 91 1015.2
20260508060124 59 198 0.0 0.0 0.00 0.00 0.00 91 1015.0
20260508055619 59 198 0.0 0.0 0.00 0.00 0.00 91 1015.3
20260508055116 59 198 0.0 0.0 0.00 0.00 0.00 91 1015.2
20260508054613 59 198 0.0 0.0 0.00 0.00 0.00 91 1015.2
20260508054110 59 198 0.0 0.0 0.00 0.00 0.00 91 1015.1
20260508053607 59 198 0.0 0.0 0.00 0.00 0.00 91 1014.9
20260508053105 59 198 0.0 0.0 0.00 0.00 0.00 91 1015.1
20260508052602 59 198 0.0 0.0 0.00 0.00 0.00 91 1015.3
20260508052059 59 198 0.0 0.0 0.00 0.00 0.00 91 1015.3
20260508051555 59 198 0.0 0.0 0.00 0.00 0.00 91 1015.4
20260508051051 59 198 0.0 0.0 0.00 0.00 0.00 91 1015.0
20260508050547 59 198 0.0 0.0 0.00 0.00 0.00 91 1015.2
20260508050045 59 198 0.0 0.0 0.00 0.00 0.00 90 1015.2
20260508045540 59 198 0.0 0.0 0.00 0.00 0.00 90 1015.1
20260508045038 59 198 0.0 0.0 0.00 0.00 0.00 90 1014.9
20260508044535 59 198 0.0 0.0 0.00 0.00 0.00 90 1015.1
20260508044031 59 198 0.0 0.0 0.00 0.00 0.00 91 1015.2
20260508043528 59 198 0.0 0.0 0.00 0.00 0.00 90 1015.0
20260508043026 59 198 0.0 0.0 0.00 0.00 0.00 90 1015.2
20260508042522 59 198 0.0 0.0 0.00 0.00 0.00 90 1015.1
20260508042020 59 198 0.0 0.0 0.00 0.00 0.00 90 1015.0
20260508041516 59 198 0.0 0.0 0.00 0.00 0.00 90 1015.1
20260508041012 59 198 0.0 0.0 0.00 0.00 0.00 90 1014.9
20260508040510 60 198 0.0 0.0 0.00 0.00 0.00 90 1015.3
20260508040007 60 198 0.0 0.0 0.00 0.00 0.00 89 1015.0
20260508035504 60 198 0.0 0.0 0.00 0.00 0.00 89 1015.1
20260508035000 60 198 0.0 0.0 0.00 0.00 0.00 89 1014.9
20260508034458 60 198 0.0 0.0 0.00 0.00 0.00 90 1015.0
20260508033954 60 198 0.0 0.0 0.00 0.00 0.00 89 1014.9
20260508033452 60 198 0.0 0.0 0.00 0.00 0.00 89 1014.8
20260508032950 60 198 0.0 0.0 0.00 0.00 0.00 89 1014.6
20260508032447 60 198 0.0 0.0 0.00 0.00 0.00 89 1014.2
20260508031944 60 198 0.0 0.0 0.00 0.00 0.00 89 1014.4
20260508031441 60 198 0.0 0.0 0.00 0.00 0.00 89 1014.6
20260508030937 60 198 0.0 0.0 0.00 0.00 0.00 88 1014.6
20260508030434 60 198 0.0 0.0 0.00 0.00 0.00 88 1014.4